Location: Tucson
(32.2217°N, 110.9265°W)
Time: 19:45:08
(UTC-07:00)

Envisat - Pass Details

Date: 28 September 2021
Orbit: 764 x 766 km, 98.2° (Epoch: 22 October)

Event Time Altitude Azimuth Distance (km) Brightness Sun altitude
Rises 05:09:35 0° 17° (NNE) 3,231 6.6 -14.8°
Reaches altitude 10° 05:11:56 10° 22° (NNE) 2,302 5.8 -14.3°
Maximum altitude 05:16:55 57° 100° (E) 897 3.7 -13.3°
Drops below altitude 10° 05:21:53 10° 179° (S) 2,288 5.4 -12.3°
Sets 05:24:12 0° 183° (S) 3,210 6.1 -11.8°
